Location: Unspecified
(49.2170°N, 0.0000°E)
Time: 08:58:32
(UTC+00:00)

Vanguard 3 - Pass Details

Date: 25 June 2019
Orbit: 507 x 3263 km, 33.4° (Epoch: 24 July)

Event Time Altitude Azimuth Distance (km) Brightness Sun altitude
Rises 08:16:09 0° 201° (SSW) 7,094 11.9 39.1°
Reaches altitude 10° 08:23:39 10° 185° (S) 5,758 11.6 40.3°
Maximum altitude 08:32:47 17° 152° (SSE) 4,543 11.7 41.8°
Drops below altitude 10° 08:40:04 10° 117° (ESE) 4,462 12.0 42.9°
Sets 08:44:37 0° 99° (E) 4,965 12.0 43.6°
